Time[GMT],salinity[psu](1m),sigma_t[kg/m^3](1m),conductivity[msiemens/cm](1m),temperature[C](1m)
2017-05-09 12:00,36.160,23.596,56.775,26.99
2017-05-09 13:00,36.171,23.600,56.806,27.01
2017-05-09 14:00,36.185,23.588,56.904,27.08
2017-05-09 15:00,36.169,23.504,57.120,27.30
2017-05-09 16:00,36.179,23.500,57.178,27.34
2017-05-09 17:00,36.099,23.445,57.045,27.32
2017-05-09 18:00,36.170,23.521,57.067,27.25
2017-05-09 19:00,36.061,23.473,56.799,27.14
2017-05-09 20:00,36.083,23.512,56.758,27.08
2017-05-09 21:00,36.116,23.526,56.837,27.11
2017-05-09 22:00,36.134,23.532,56.890,27.13
2017-05-09 23:00,36.157,23.554,56.909,27.12
2017-05-10 00:00,36.195,23.589,56.940,27.10
2017-05-10 01:00,36.201,23.606,56.906,27.06
2017-05-10 02:00,36.192,23.608,56.859,27.03
2017-05-10 03:00,36.182,23.611,56.812,27.00
2017-05-10 04:00,36.177,23.622,56.755,26.95
2017-05-10 05:00,36.163,23.600,56.775,26.99
2017-05-10 06:00,36.119,23.551,56.764,27.04
2017-05-10 07:00,36.048,23.486,56.707,27.07
2017-05-10 08:00,36.034,23.486,56.651,27.04
2017-05-10 09:00,36.029,23.474,56.671,27.07
2017-05-10 10:00,36.030,23.501,56.585,26.98
2017-05-10 11:00,36.120,23.560,56.741,27.01
2017-05-10 12:00,36.104,23.526,56.793,27.08
2017-05-10 13:00,36.086,23.456,56.957,27.25
2017-05-10 14:00,36.132,23.511,56.954,27.19
2017-05-10 15:00,36.136,23.427,57.250,27.46
2017-05-10 16:00,36.163,23.503,57.101,27.29
2017-05-10 17:00,36.143,23.458,57.174,27.38
2017-05-10 18:00,36.106,23.414,57.177,27.43
2017-05-10 19:00,36.069,23.342,57.272,27.57
2017-05-10 20:00,36.072,23.360,57.225,27.52
2017-05-10 21:00,36.081,23.373,57.216,27.50
2017-05-10 22:00,36.087,23.379,57.218,27.49
2017-05-10 23:00,36.120,23.394,57.300,27.53
2017-05-11 00:00,36.149,23.443,57.248,27.44
2017-05-11 01:00,36.158,23.413,57.386,27.56
2017-05-11 02:00,36.157,23.422,57.352,27.53
2017-05-11 03:00,36.155,23.469,57.185,27.38
2017-05-11 04:00,36.137,23.491,57.042,27.27
2017-05-11 05:00,36.134,23.519,56.936,27.17
2017-05-11 06:00,36.135,23.495,57.017,27.25
2017-05-11 07:00,36.097,23.468,56.961,27.24
2017-05-11 08:00,36.073,23.456,56.906,27.23
2017-05-11 09:00,36.085,23.454,56.959,27.26
2017-05-11 10:00,36.082,23.458,56.932,27.24
2017-05-11 11:00,36.074,23.454,56.916,27.23
2017-05-11 12:00,36.078,23.443,56.969,27.28
2017-05-11 13:00,36.066,23.423,56.991,27.31
2017-05-11 14:00,36.076,23.399,57.107,27.41
2017-05-11 15:00,36.148,23.449,57.222,27.42
2017-05-11 16:00,36.154,23.440,57.278,27.46
2017-05-11 17:00,36.141,23.378,57.432,27.62
2017-05-11 18:00,36.125,23.253,57.787,27.97
2017-05-11 19:00,36.138,23.283,57.738,27.91
2017-05-11 20:00,36.148,23.279,57.791,27.94
2017-05-11 21:00,36.144,23.224,57.961,28.10
2017-05-11 22:00,36.150,23.216,58.006,28.14
2017-05-11 23:00,36.148,23.309,57.692,27.85
2017-05-12 00:00,36.144,23.380,57.440,27.63
2017-05-12 01:00,36.127,23.367,57.417,27.63
2017-05-12 02:00,36.127,23.391,57.334,27.55
2017-05-12 03:00,36.170,23.460,57.271,27.44
2017-05-12 04:00,36.179,23.479,57.244,27.40
2017-05-12 05:00,36.145,23.444,57.229,27.43
2017-05-12 06:00,36.145,23.452,57.202,27.41
2017-05-12 07:00,36.153,23.461,57.206,27.40
2017-05-12 08:00,36.130,23.444,57.168,27.39
2017-05-12 09:00,36.114,23.452,57.081,27.33
2017-05-12 10:00,36.134,23.463,57.124,27.35
2017-05-12 11:00,36.135,23.464,57.124,27.35
2017-05-12 12:00,36.141,23.460,57.162,27.37
2017-05-12 13:00,36.153,23.433,57.298,27.48
2017-05-12 14:00,36.166,23.450,57.294,27.46
2017-05-12 15:00,36.157,23.381,57.486,27.65
2017-05-12 16:00,36.155,23.279,57.818,27.96
2017-05-12 17:00,36.161,23.290,57.807,27.94
2017-05-12 18:00,36.164,23.238,57.992,28.11
2017-05-12 19:00,36.171,23.274,57.897,28.01
2017-05-12 20:00,36.176,23.308,57.805,27.92
2017-05-12 21:00,36.168,23.324,57.720,27.85
2017-05-12 22:00,36.194,23.347,57.746,27.84
2017-05-12 23:00,36.198,23.372,57.677,27.77
2017-05-13 00:00,36.202,23.387,57.646,27.74
2017-05-13 01:00,36.204,23.432,57.503,27.60
2017-05-13 02:00,36.209,23.439,57.497,27.59
2017-05-13 03:00,36.209,23.436,57.507,27.60
2017-05-13 04:00,36.212,23.463,57.431,27.53
2017-05-13 05:00,36.215,23.489,57.353,27.45
2017-05-13 06:00,36.219,23.506,57.309,27.41
2017-05-13 07:00,36.220,23.520,57.268,27.37
2017-05-13 08:00,36.218,23.520,57.260,27.36
2017-05-13 09:00,36.224,23.543,57.209,27.31
2017-05-13 10:00,36.212,23.535,57.187,27.31
2017-05-13 11:00,36.215,23.539,57.185,27.30
2017-05-13 12:00,36.199,23.522,57.177,27.31
2017-05-13 13:00,36.207,23.512,57.245,27.36
2017-05-13 14:00,36.212,23.477,57.381,27.48
2017-05-13 15:00,36.196,23.461,57.375,27.50
2017-05-13 16:00,36.206,23.456,57.428,27.53
2017-05-13 17:00,36.204,23.454,57.427,27.54
2017-05-13 18:00,36.208,23.439,57.494,27.59
2017-05-13 19:00,36.219,23.372,57.763,27.82
2017-05-13 20:00,36.216,23.341,57.852,27.91
2017-05-13 21:00,36.210,23.309,57.936,28.00
2017-05-13 22:00,36.214,23.347,57.825,27.89
2017-05-13 23:00,36.221,23.422,57.603,27.67
2017-05-14 00:00,36.204,23.341,57.807,27.88
2017-05-14 01:00,36.230,23.389,57.747,27.80
2017-05-14 02:00,36.207,23.322,57.880,27.95
2017-05-14 03:00,36.205,23.324,57.867,27.94
2017-05-14 04:00,36.228,23.414,57.657,27.72
2017-05-14 05:00,36.234,23.491,57.423,27.49
2017-05-14 06:00,36.234,23.515,57.340,27.42
2017-05-14 07:00,36.242,23.557,57.232,27.31
2017-05-14 08:00,36.199,23.439,57.457,27.57
2017-05-14 09:00,36.214,23.478,57.386,27.49
2017-05-14 10:00,36.230,23.511,57.336,27.42
2017-05-14 11:00,36.238,23.539,57.275,27.35
2017-05-14 12:00,36.262,23.586,57.212,27.26
2017-05-14 13:00,36.262,23.594,57.185,27.24
2017-05-14 14:00,36.246,23.607,57.078,27.16
2017-05-14 15:00,36.249,23.609,57.081,27.16
2017-05-14 16:00,36.271,23.615,57.148,27.19
2017-05-14 17:00,36.262,23.568,57.273,27.32
2017-05-14 18:00,36.259,23.493,57.511,27.54
2017-05-14 19:00,36.255,23.467,57.582,27.61
2017-05-14 20:00,36.246,23.435,57.654,27.69
2017-05-14 21:00,36.251,23.446,57.642,27.67
2017-05-14 22:00,36.260,23.464,57.612,27.63
2017-05-14 23:00,36.258,23.475,57.569,27.60
2017-05-15 00:00,36.259,23.485,57.540,27.57
2017-05-15 01:00,36.262,23.446,57.681,27.69
2017-05-15 02:00,36.235,23.411,57.690,27.74
2017-05-15 03:00,36.280,23.555,57.385,27.40
2017-05-15 04:00,36.287,23.572,57.357,27.36
2017-05-15 05:00,36.295,23.618,57.236,27.24
2017-05-15 06:00,36.282,23.572,57.336,27.35
2017-05-15 07:00,36.299,23.607,57.286,27.28
2017-05-15 08:00,36.294,23.625,57.209,27.22
2017-05-15 09:00,36.185,23.496,57.211,27.36
2017-05-15 10:00,36.235,23.555,57.208,27.29
2017-05-15 11:00,36.276,23.648,57.055,27.10
2017-05-15 12:00,36.282,23.651,57.070,27.11
2017-05-15 13:00,36.307,23.670,57.107,27.11
2017-05-15 14:00,36.315,23.669,57.138,27.13
2017-05-15 15:00,36.321,23.690,57.092,27.08
2017-05-15 16:00,36.319,23.672,57.148,27.13
2017-05-15 17:00,36.324,23.585,57.462,27.41
2017-05-15 18:00,36.325,23.547,57.592,27.53
2017-05-15 19:00,36.334,23.571,57.547,27.48
2017-05-15 20:00,36.354,23.622,57.452,27.37
2017-05-15 21:00,36.349,23.665,57.289,27.22
2017-05-15 22:00,36.351,23.659,57.315,27.24
2017-05-15 23:00,36.331,23.583,57.496,27.43
2017-05-16 00:00,36.338,23.619,57.402,27.34
2017-05-16 01:00,36.349,23.655,57.321,27.25
2017-05-16 02:00,36.341,23.651,57.306,27.25
2017-05-16 03:00,36.350,23.671,57.271,27.20
2017-05-16 04:00,36.363,23.713,57.182,27.11
2017-05-16 05:00,36.373,23.733,57.150,27.06
2017-05-16 06:00,36.376,23.745,57.122,27.03
2017-05-16 07:00,36.377,23.762,57.072,26.99
2017-05-16 08:00,36.380,23.775,57.038,26.95
2017-05-16 09:00,36.321,23.695,57.074,27.06
2017-05-16 10:00,36.315,23.682,57.096,27.09
2017-05-16 11:00,36.341,23.745,56.985,26.95
2017-05-16 12:00,36.323,23.701,57.061,27.05
2017-05-16 13:00,36.338,23.703,57.117,27.08
2017-05-16 14:00,36.353,23.713,57.140,27.08
2017-05-16 15:00,36.342,23.685,57.193,27.14
2017-05-16 16:00,36.340,23.671,57.233,27.18
2017-05-16 17:00,36.383,23.626,57.552,27.42
2017-05-16 18:00,36.383,23.633,57.529,27.40
2017-05-16 19:00,36.389,23.591,57.695,27.54
2017-05-16 20:00,36.376,23.633,57.502,27.38
2017-05-16 21:00,36.371,23.646,57.440,27.33
2017-05-16 22:00,36.383,23.616,57.588,27.45
2017-05-16 23:00,36.395,23.632,57.579,27.43
2017-05-17 00:00,36.383,23.675,57.387,27.27
2017-05-17 01:00,36.391,23.753,57.153,27.04
2017-05-17 02:00,36.402,23.729,57.283,27.15
2017-05-17 03:00,36.392,23.750,57.171,27.06
2017-05-17 04:00,36.393,23.735,57.225,27.11
2017-05-17 05:00,36.404,23.783,57.104,26.98
2017-05-17 06:00,36.406,23.801,57.050,26.93
2017-05-17 07:00,36.402,23.801,57.037,26.92
2017-05-17 08:00,36.367,23.742,57.096,27.02
2017-05-17 09:00,36.374,23.780,56.998,26.92
2017-05-17 10:00,36.360,23.767,56.984,26.93
2017-05-17 11:00,36.348,23.743,57.022,26.98
2017-05-17 12:00,36.359,23.734,57.094,27.03
2017-05-17 13:00,36.386,23.769,57.082,26.99
2017-05-17 14:00,36.400,23.785,57.080,26.97
2017-05-17 15:00,36.418,23.808,57.076,26.94
2017-05-17 16:00,36.419,23.797,57.115,26.97
2017-05-17 17:00,36.384,23.727,57.215,27.11
2017-05-17 18:00,36.384,23.711,57.273,27.16
2017-05-17 19:00,36.394,23.677,57.422,27.29
2017-05-17 20:00,36.412,23.664,57.538,27.37
2017-05-17 21:00,36.413,23.631,57.654,27.48
2017-05-17 22:00,36.409,23.621,57.674,27.50
2017-05-17 23:00,36.406,23.604,57.721,27.54
2017-05-18 00:00,36.395,23.571,57.787,27.62
2017-05-18 01:00,36.393,23.569,57.787,27.62
2017-05-18 02:00,36.394,23.576,57.764,27.60
2017-05-18 03:00,36.403,23.633,57.609,27.45
2017-05-18 04:00,36.415,23.661,57.560,27.39
2017-05-18 05:00,36.406,23.671,57.491,27.33
2017-05-18 06:00,36.419,23.740,57.310,27.15
2017-05-18 07:00,36.415,23.731,57.325,27.17
2017-05-18 08:00,36.418,23.742,57.299,27.14
2017-05-18 09:00,36.431,23.786,57.202,27.04
2017-05-18 10:00,36.456,23.848,57.089,26.90
2017-05-18 11:00,36.451,23.847,57.075,26.90
2017-05-18 12:00,36.456,23.874,57.001,26.82
2017-05-18 13:00,36.457,23.867,57.027,26.85
2017-05-18 14:00,36.461,23.871,57.032,26.84
2017-05-18 15:00,36.463,23.888,56.982,26.80
2017-05-18 16:00,36.439,23.756,57.335,27.15
2017-05-18 17:00,36.426,23.711,57.437,27.26
2017-05-18 18:00,36.426,23.682,57.537,27.35
2017-05-18 19:00,36.430,23.714,57.439,27.26
2017-05-18 20:00,36.437,23.742,57.375,27.19
2017-05-18 21:00,36.443,23.756,57.352,27.16
2017-05-18 22:00,36.423,23.725,57.378,27.21
2017-05-18 23:00,36.437,23.761,57.311,27.13
2017-05-19 00:00,36.432,23.739,57.363,27.18
2017-05-19 01:00,36.422,23.715,57.407,27.24
2017-05-19 02:00,36.426,23.729,57.375,27.20
2017-05-19 03:00,36.431,23.751,57.320,27.15
2017-05-19 04:00,36.429,23.736,57.364,27.19
2017-05-19 05:00,36.436,23.762,57.301,27.12
2017-05-19 06:00,36.455,23.835,57.130,26.94
2017-05-19 07:00,36.457,23.858,57.061,26.88
2017-05-19 08:00,36.464,23.884,56.998,26.81
2017-05-19 09:00,36.466,23.895,56.971,26.78
2017-05-19 10:00,36.465,23.893,56.973,26.78
2017-05-19 11:00,36.466,23.901,56.951,26.76
2017-05-19 12:00,36.464,23.893,56.969,26.78
2017-05-19 13:00,36.455,23.864,57.034,26.85
2017-05-19 14:00,36.462,23.860,57.070,26.88
2017-05-19 15:00,36.468,23.865,57.081,26.88
2017-05-19 16:00,36.435,23.754,57.327,27.15
2017-05-19 17:00,36.433,23.748,57.340,27.16
2017-05-19 18:00,36.445,23.745,57.398,27.20
2017-05-19 19:00,36.447,23.731,57.451,27.25
2017-05-19 20:00,36.447,23.731,57.452,27.25
2017-05-19 21:00,36.455,23.789,57.284,27.08
2017-05-19 22:00,36.458,23.808,57.232,27.03
2017-05-19 23:00,36.458,23.814,57.213,27.01
2017-05-20 00:00,36.455,23.818,57.189,27.00
2017-05-20 01:00,36.460,23.837,57.140,26.95
2017-05-20 02:00,36.463,23.854,57.097,26.90
2017-05-20 03:00,36.461,23.832,57.164,26.97
2017-05-20 04:00,36.455,23.792,57.275,27.07
2017-05-20 05:00,36.450,23.779,57.300,27.10
2017-05-20 06:00,36.452,23.785,57.288,27.09
2017-05-20 07:00,36.472,23.858,57.121,26.91
2017-05-20 08:00,36.478,23.892,57.025,26.82
2017-05-20 09:00,36.482,23.912,56.972,26.76
2017-05-20 10:00,36.480,23.912,56.968,26.76
2017-05-20 11:00,36.481,23.924,56.928,26.72
2017-05-20 12:00,36.482,23.925,56.928,26.72
2017-05-20 13:00,36.479,23.877,57.082,26.87
2017-05-20 14:00,36.455,23.814,57.201,27.01
2017-05-20 15:00,36.445,23.835,57.090,26.92
2017-05-20 16:00,36.470,23.818,57.245,27.03
2017-05-20 17:00,36.467,23.661,57.766,27.51
2017-05-20 18:00,36.462,23.661,57.745,27.50
2017-05-20 19:00,36.459,23.650,57.772,27.52
2017-05-20 20:00,36.469,23.696,57.660,27.41
2017-05-20 21:00,36.466,23.745,57.480,27.25
2017-05-20 22:00,36.465,23.745,57.475,27.25
2017-05-20 23:00,36.462,23.760,57.415,27.19
2017-05-21 00:00,36.464,23.803,57.275,27.06
2017-05-21 01:00,36.460,23.810,57.235,27.03
2017-05-21 02:00,36.461,23.817,57.213,27.01
2017-05-21 03:00,36.460,23.782,57.327,27.12
2017-05-21 04:00,36.467,23.706,57.614,27.37
2017-05-21 05:00,36.466,23.685,57.684,27.43
2017-05-21 06:00,36.461,23.719,57.545,27.31
2017-05-21 07:00,36.482,23.759,57.496,27.24
2017-05-21 08:00,36.484,23.811,57.324,27.08
2017-05-21 09:00,36.484,23.827,57.270,27.03
2017-05-21 10:00,36.474,23.866,57.102,26.89
2017-05-21 11:00,36.471,23.865,57.091,26.89
2017-05-21 12:00,36.472,23.866,57.092,26.89
2017-05-21 13:00,36.471,23.848,57.150,26.94
2017-05-21 14:00,36.468,23.849,57.133,26.93
2017-05-21 15:00,36.472,23.816,57.263,27.04
2017-05-21 16:00,36.473,23.806,57.299,27.07
2017-05-21 17:00,36.467,23.645,57.820,27.56
2017-05-21 18:00,36.461,23.620,57.880,27.62
2017-05-21 19:00,36.455,23.608,57.899,27.65
2017-05-21 20:00,36.475,23.634,57.888,27.61
2017-05-21 21:00,36.462,23.613,57.910,27.65
2017-05-21 22:00,36.473,23.632,57.886,27.61
2017-05-21 23:00,36.468,23.638,57.848,27.58
2017-05-22 00:00,36.472,23.727,57.562,27.32
2017-05-22 01:00,36.474,23.737,57.537,27.29
2017-05-22 02:00,36.475,23.742,57.527,27.28
2017-05-22 03:00,36.470,23.742,57.506,27.27
2017-05-22 04:00,36.462,23.741,57.477,27.25
2017-05-22 05:00,36.467,23.748,57.476,27.24
2017-05-22 06:00,36.467,23.756,57.444,27.21
2017-05-22 07:00,36.472,23.720,57.588,27.34
2017-05-22 08:00,36.463,23.670,57.720,27.47
2017-05-22 09:00,36.457,23.680,57.666,27.43
2017-05-22 10:00,36.462,23.698,57.624,27.38
2017-05-22 11:00,36.459,23.708,57.575,27.34
2017-05-22 12:00,36.461,23.725,57.525,27.30
2017-05-22 13:00,36.459,23.722,57.530,27.30
2017-05-22 14:00,36.448,23.681,57.626,27.40
2017-05-22 15:00,36.458,23.702,57.594,27.36
2017-05-22 16:00,36.453,23.669,57.683,27.45
2017-05-22 17:00,36.456,23.594,57.950,27.69
2017-05-22 18:00,36.448,23.569,58.001,27.75
2017-05-22 19:00,36.447,23.539,58.097,27.84
2017-05-22 20:00,36.450,23.510,58.207,27.93
2017-05-22 21:00,36.447,23.492,58.255,27.98
2017-05-22 22:00,36.455,23.530,58.158,27.88
2017-05-22 23:00,36.459,23.558,58.080,27.80
2017-05-23 00:00,36.463,23.592,57.984,27.71
2017-05-23 01:00,36.464,23.706,57.604,27.36
2017-05-23 02:00,36.469,23.750,57.474,27.24
2017-05-23 03:00,36.464,23.776,57.365,27.15
2017-05-23 04:00,36.460,23.773,57.361,27.15
2017-05-23 05:00,36.460,23.778,57.345,27.13
2017-05-23 06:00,36.455,23.784,57.306,27.10
2017-05-23 07:00,36.464,23.631,57.855,27.59
2017-05-23 08:00,36.462,23.688,57.658,27.42
2017-05-23 09:00,36.462,23.732,57.506,27.28
2017-05-23 10:00,36.459,23.758,57.408,27.19
2017-05-23 11:00,36.458,23.769,57.367,27.15
2017-05-23 12:00,36.458,23.780,57.328,27.12
2017-05-23 13:00,36.459,23.766,57.380,27.17
2017-05-23 14:00,36.461,23.778,57.345,27.13
2017-05-23 15:00,36.454,23.761,57.381,27.17
2017-05-23 16:00,36.453,23.752,57.403,27.19
2017-05-23 17:00,36.460,23.636,57.824,27.57
2017-05-23 18:00,36.462,23.610,57.916,27.65
2017-05-23 19:00,36.449,23.618,57.841,27.60
2017-05-23 20:00,36.451,23.587,57.950,27.70
2017-05-23 21:00,36.454,23.582,57.982,27.72
2017-05-23 22:00,36.468,23.665,57.759,27.50
2017-05-23 23:00,36.458,23.642,57.796,27.55
2017-05-24 00:00,36.460,23.727,57.516,27.29
2017-05-24 01:00,36.459,23.690,57.636,27.40
2017-05-24 02:00,36.461,23.752,57.436,27.21
2017-05-24 03:00,36.464,23.794,57.306,27.09
2017-05-24 04:00,36.461,23.815,57.221,27.02
2017-05-24 05:00,36.456,23.821,57.181,26.99
2017-05-24 06:00,36.457,23.829,57.158,26.96
2017-05-24 07:00,36.461,23.841,57.132,26.94
2017-05-24 08:00,36.460,23.838,57.141,26.94
2017-05-24 09:00,36.462,23.769,57.380,27.16
2017-05-24 10:00,36.467,23.809,57.268,27.05
2017-05-24 11:00,36.463,23.813,57.235,27.03
2017-05-24 12:00,36.467,23.791,57.327,27.11
2017-05-24 13:00,36.458,23.780,57.327,27.12
2017-05-24 14:00,36.460,23.787,57.312,27.10
2017-05-24 15:00,36.460,23.805,57.253,27.05
2017-05-24 16:00,36.463,23.797,57.291,27.08
2017-05-24 17:00,36.461,23.783,57.330,27.12
2017-05-24 18:00,36.468,23.750,57.468,27.23
2017-05-24 19:00,36.463,23.696,57.633,27.39
2017-05-24 20:00,36.475,23.665,57.785,27.52
2017-05-24 21:00,36.468,23.650,57.807,27.54
2017-05-24 22:00,36.470,23.699,57.652,27.40
2017-05-24 23:00,36.468,23.737,57.516,27.28
2017-05-25 00:00,36.477,23.657,57.820,27.54
2017-05-25 01:00,36.475,23.689,57.705,27.44
2017-05-25 02:00,36.488,23.841,57.240,27.00
2017-05-25 03:00,36.491,23.865,57.172,26.93
2017-05-25 04:00,36.486,23.893,57.054,26.83
2017-05-25 05:00,36.484,23.847,57.204,26.97
2017-05-25 06:00,36.468,23.842,57.157,26.95
2017-05-25 07:00,36.424,23.816,57.073,26.93
2017-05-25 08:00,36.417,23.796,57.113,26.97
2017-05-25 09:00,36.420,23.791,57.141,27.00
2017-05-25 10:00,36.423,23.783,57.182,27.03
2017-05-25 11:00,36.422,23.777,57.198,27.05
2017-05-25 12:00,36.400,23.758,57.174,27.05
2017-05-25 13:00,36.404,23.739,57.256,27.12
2017-05-25 14:00,36.393,23.720,57.275,27.15
2017-05-25 15:00,36.400,23.704,57.355,27.22
2017-05-25 16:00,36.407,23.693,57.420,27.27
2017-05-25 17:00,36.410,23.680,57.476,27.32
2017-05-25 18:00,36.419,23.666,57.562,27.38
2017-05-25 19:00,36.424,23.663,57.591,27.40
2017-05-25 20:00,36.426,23.664,57.595,27.40
2017-05-25 21:00,36.427,23.671,57.576,27.39
2017-05-25 22:00,36.489,23.627,57.968,27.66
2017-05-25 23:00,36.481,23.602,58.019,27.72
2017-05-26 00:00,36.479,23.616,57.963,27.67
2017-05-26 01:00,36.475,23.642,57.862,27.59
2017-05-26 02:00,36.470,23.666,57.763,27.50
2017-05-26 03:00,36.457,23.689,57.632,27.40
2017-05-26 04:00,36.445,23.692,57.576,27.36
2017-05-26 05:00,36.446,23.700,57.552,27.34
2017-05-26 06:00,36.424,23.686,57.512,27.33
2017-05-26 07:00,36.450,23.714,57.522,27.31
2017-05-26 08:00,36.438,23.715,57.470,27.27
2017-05-26 09:00,36.440,23.716,57.474,27.28
2017-05-26 10:00,36.449,23.729,57.466,27.26
2017-05-26 11:00,36.448,23.736,57.439,27.23
2017-05-26 12:00,36.321,23.658,57.203,27.18
2017-05-26 13:00,36.186,23.545,57.050,27.21
2017-05-26 14:00,36.346,23.644,57.349,27.28
2017-05-26 15:00,36.385,23.651,57.476,27.35
2017-05-26 16:00,36.370,23.630,57.487,27.38
2017-05-26 17:00,36.365,23.538,57.780,27.65
2017-05-26 18:00,36.396,23.519,57.965,27.78
2017-05-26 19:00,36.411,23.492,58.111,27.90
2017-05-26 20:00,36.415,23.491,58.133,27.91
2017-05-26 21:00,36.420,23.482,58.185,27.95
2017-05-26 22:00,36.251,23.363,57.916,27.92
2017-05-26 23:00,36.423,23.488,58.177,27.94
2017-05-27 00:00,36.407,23.508,58.044,27.84
2017-05-27 01:00,36.384,23.506,57.958,27.79
2017-05-27 02:00,36.386,23.520,57.922,27.75
2017-05-27 03:00,36.397,23.544,57.884,27.71
2017-05-27 04:00,36.371,23.525,57.845,27.70
2017-05-27 05:00,36.322,23.517,57.680,27.62
2017-05-27 06:00,36.298,23.487,57.688,27.65
2017-05-27 07:00,36.260,23.497,57.503,27.53
2017-05-27 08:00,36.264,23.483,57.565,27.59
2017-05-27 09:00,36.263,23.482,57.566,27.59
2017-05-27 10:00,36.279,23.496,57.581,27.58
2017-05-27 11:00,36.298,23.504,57.629,27.60
2017-05-27 12:00,36.294,23.499,57.630,27.61
2017-05-27 13:00,36.295,23.476,57.709,27.68
2017-05-27 14:00,36.239,23.401,57.740,27.78
2017-05-27 15:00,36.267,23.417,57.799,27.80
2017-05-27 16:00,36.266,23.384,57.906,27.89
2017-05-27 17:00,36.271,23.373,57.964,27.94
2017-05-27 18:00,36.261,23.319,58.099,28.08
2017-05-27 19:00,36.276,23.362,58.015,27.98
2017-05-27 20:00,36.337,23.370,58.228,28.10
2017-05-27 21:00,36.365,23.365,58.357,28.18
2017-05-27 22:00,36.373,23.354,58.427,28.23
2017-05-27 23:00,36.381,23.370,58.403,28.20
2017-05-28 00:00,36.382,23.393,58.331,28.13
2017-05-28 01:00,36.383,23.416,58.255,28.06
2017-05-28 02:00,36.391,23.482,58.071,27.88
2017-05-28 03:00,36.401,23.569,57.818,27.64
2017-05-28 04:00,36.416,23.643,57.624,27.44
2017-05-28 05:00,36.420,23.663,57.574,27.39
2017-05-28 06:00,36.408,23.662,57.531,27.37
2017-05-28 07:00,36.395,23.585,57.739,27.58
2017-05-28 08:00,36.301,23.545,57.500,27.48
2017-05-28 09:00,36.264,23.499,57.515,27.54
2017-05-28 10:00,36.261,23.514,57.450,27.48
2017-05-28 11:00,36.264,23.512,57.467,27.50
2017-05-28 12:00,36.258,23.498,57.493,27.53
2017-05-28 13:00,36.263,23.478,57.576,27.60
2017-05-28 14:00,36.293,23.481,57.688,27.66
2017-05-28 15:00,36.305,23.467,57.780,27.73
2017-05-28 16:00,36.321,23.466,57.846,27.77
2017-05-28 17:00,36.337,23.469,57.897,27.80
2017-05-28 18:00,36.322,23.469,57.840,27.76
2017-05-28 19:00,36.308,23.453,57.840,27.78
2017-05-28 20:00,36.368,23.407,58.232,28.06
2017-05-28 21:00,36.359,23.419,58.153,28.00
2017-05-28 22:00,36.361,23.421,58.153,28.00
2017-05-28 23:00,36.363,23.444,58.085,27.93
2017-05-29 00:00,36.357,23.396,58.222,28.07
2017-05-29 01:00,36.363,23.371,58.326,28.15
2017-05-29 02:00,36.362,23.373,58.318,28.15
2017-05-29 03:00,36.369,23.419,58.193,28.02
2017-05-29 04:00,36.372,23.443,58.125,27.96
2017-05-29 05:00,36.367,23.455,58.066,27.91
2017-05-29 06:00,36.376,23.509,57.919,27.76
2017-05-29 07:00,36.364,23.536,57.782,27.66
2017-05-29 08:00,36.374,23.569,57.711,27.58
2017-05-29 09:00,36.382,23.556,57.782,27.63
2017-05-29 10:00,36.388,23.581,57.723,27.57
2017-05-29 11:00,36.382,23.605,57.623,27.49
2017-05-29 12:00,36.368,23.583,57.641,27.52
2017-05-29 13:00,36.363,23.558,57.704,27.58
2017-05-29 14:00,36.364,23.564,57.686,27.57
2017-05-29 15:00,36.367,23.563,57.704,27.58
2017-05-29 16:00,36.367,23.574,57.666,27.55
2017-05-29 17:00,36.367,23.580,57.649,27.53
2017-05-29 18:00,36.343,23.475,57.904,27.79
2017-05-29 19:00,36.336,23.443,57.983,27.87
2017-05-29 20:00,36.357,23.525,57.792,27.67
2017-05-29 21:00,36.358,23.514,57.834,27.71
2017-05-29 22:00,36.349,23.487,57.885,27.77
2017-05-29 23:00,36.352,23.501,57.853,27.74
2017-05-30 00:00,36.367,23.534,57.802,27.67
2017-05-30 01:00,36.320,23.440,57.932,27.85
2017-05-30 02:00,36.161,23.329,57.675,27.82
2017-05-30 03:00,36.218,23.418,57.602,27.68
2017-05-30 04:00,36.294,23.513,57.583,27.56
2017-05-30 05:00,36.305,23.522,57.596,27.56
2017-05-30 06:00,36.304,23.530,57.566,27.53
2017-05-30 07:00,36.353,23.592,57.547,27.45
2017-05-30 08:00,36.343,23.606,57.467,27.39
2017-05-30 09:00,36.314,23.588,57.412,27.38
2017-05-30 10:00,36.368,23.659,57.382,27.28
2017-05-30 11:00,36.337,23.620,57.393,27.33
2017-05-30 12:00,36.377,23.641,57.480,27.36
2017-05-30 13:00,36.382,23.631,57.530,27.40
2017-05-30 14:00,36.385,23.629,57.555,27.42
2017-05-30 15:00,36.395,23.633,57.577,27.43
2017-05-30 16:00,36.389,23.649,57.501,27.37
2017-05-30 17:00,36.383,23.631,57.536,27.41
2017-05-30 18:00,36.375,23.611,57.571,27.45
2017-05-30 19:00,36.362,23.615,57.508,27.41
2017-05-30 20:00,36.344,23.562,57.613,27.53
2017-05-30 21:00,36.352,23.594,57.539,27.45
2017-05-30 22:00,36.346,23.605,57.480,27.40
2017-05-30 23:00,36.358,23.606,57.521,27.42
2017-05-31 00:00,36.319,23.539,57.598,27.54
2017-05-31 01:00,36.311,23.524,57.613,27.57
2017-05-31 02:00,36.327,23.554,57.574,27.51
2017-05-31 03:00,36.312,23.517,57.639,27.59
2017-05-31 04:00,36.366,23.612,57.534,27.42
2017-05-31 05:00,36.374,23.627,57.513,27.40
2017-05-31 06:00,36.388,23.648,57.499,27.37
2017-05-31 07:00,36.390,23.653,57.492,27.36
2017-05-31 08:00,36.397,23.664,57.483,27.34
2017-05-31 09:00,36.399,23.669,57.474,27.33
2017-05-31 10:00,36.394,23.667,57.460,27.32
2017-05-31 11:00,36.396,23.669,57.462,27.32
2017-05-31 12:00,36.398,23.672,57.456,27.31
2017-05-31 13:00,36.400,23.674,57.459,27.31
2017-05-31 14:00,36.402,23.660,57.512,27.36